www.pogodaiklimat.ru

Погода и климат >> Архив погоды >> Норвегия >> Маяк Obrestad


ПОГОДА на Маяке Obrestad

  • Прогноз погоды на Маяке Obrestad
  • Монитор погоды на Маяке Obrestad

АРХИВ ПОГОДЫ на Маяке Obrestad

Время (UTC), дата Ветер
(напр.,м/с)
 
Видим.   Явления Облачность Т
(С)
Тd
(С)
f
(%)
Тe
(С)
Тes
(С)
Комфортность P
(гПа)
Po
(гПа)
Тmin
(С)
Tmax
(С)
R
(мм)
R24
(мм)
S
(см)
07 19.03 ЮВ 1
{2}
н/о н/о +0.5 -2.1 83 -1 -1 1022.4 1019.2
08 19.03 Ю 2
{2}
н/о н/о +2.8 -0.4 79 -0 -0 1022.7 1019.5
09 19.03 Ю 1
{3}
н/о н/о +4.3 +0.7 77 +3 +3 1023.1 1019.9
10 19.03 Ю 2
{3}
н/о н/о +5.2 +0.8 73 +3 +3 1023.3 1020.2
11 19.03 Ю 3
{4}
н/о н/о +5.8 +2.3 78 +3 +3 1023.4 1020.2
12 19.03 Ю 4
{5}
н/о н/о +5.1 +1.2 76 +1 +1 1023.5 1020.3
13 19.03 Ю 5
{7}
н/о н/о +5.1 +0.7 73 +1 +1 1023.2 1020.0
14 19.03 Ю 7
{8}
н/о н/о +5.0 +0.9 75 -0 -0 1022.7 1019.5
15 19.03 ЮВ 8
{10}
н/о н/о +5.0 +0.3 72 -1 -1 1022.2 1019.0
16 19.03 ЮВ 9
{12}
н/о н/о +5.0 +0.5 73 -1 -1 1021.8 1018.6
17 19.03 ЮВ 9
{12}
н/о н/о +4.9 +1.3 77 -1 -1 1021.8 1018.6
18 19.03 ЮВ 10
{13}
н/о н/о +4.9 +2.3 83 -2 -2 1021.2 1018.1 -0.8 +6.1
19 19.03 ЮВ 10
{14}
н/о н/о +5.0 +3.1 88 -2 -2 1021.1 1018.0
20 19.03 ЮВ 10
{14}
н/о н/о +4.8 +4.1 95 -2 -2 1020.4 1017.2
21 19.03 Ю 12
{14}
н/о н/о +5.1 +4.8 98 -2 -2 1019.2 1016.0 1
22 19.03 Ю 7
{14}
н/о н/о +5.1 +4.9 99 -1 -1 1019.5 1016.3
23 19.03 Ю 7
{10}
н/о н/о +5.2 +5.1 99 -1 -1 1018.7 1015.6
00 20.03 Ю 5
{14}
н/о н/о +5.3 +5.2 99 0 0 1018.4 1015.3
01 20.03 З 8
{11}
н/о н/о +5.2 +5.2 100 -1 -1 1018.5 1015.4
02 20.03 З 5
{10}
н/о н/о +5.5 +3 +3 1018.7 1015.6
03 20.03 З 6
{7}
н/о н/о +5.2 +5.2 100 -0 -0 1018.9 1015.7
04 20.03 З 6
{7}
н/о н/о +4.9 +4.8 99 -1 -1 1019.2 1016.0
05 20.03 З 7
{9}
н/о н/о +5.2 +5.1 99 -1 -1 1020.1 1016.9
06 20.03 З 8
{11}
н/о н/о +5.3 +5.0 98 -1 -1 1020.6 1017.4 +4.7 +5.8 5
07 20.03 З 8
{9}
н/о н/о +5.5 +4.7 95 -0 -0 1021.4 1018.3
08 20.03 З 8
{10}
н/о н/о +5.7 +4.5 92 0 0 1022.0 1018.8
09 20.03 З 8
{10}
н/о н/о +6.0 +4.8 92 0 0 1022.9 1019.7
10 20.03 З 9
{10}
н/о н/о +6.0 +4.9 93 0 0 1023.6 1020.4
11 20.03 З 7
{9}
н/о н/о +6.3 +5.1 92 +1 +1 1023.8 1020.6
12 20.03 З 6
{10}
н/о н/о +5.9 +4.7 92 +1 +1 1024.3 1021.1
13 20.03 З 6
{7}
н/о н/о +5.9 +4.9 93 +1 +1 1024.6 1021.4
14 20.03 З 5
{8}
н/о н/о +6.2 +5.0 92 +2 +2 1024.5 1021.3
15 20.03 З 5
{6}
н/о н/о +6.4 +5.0 91 +2 +2 1024.3 1021.1
16 20.03 ЮЗ 4
{5}
н/о н/о +6.0 +4.8 92 +2 +2 1024.4 1021.3
17 20.03 Ю 2
{4}
н/о н/о +5.4 +4.6 95 +3 +3 1024.5 1021.3
18 20.03 Ю 5
{8}
н/о н/о +6.0 +5.5 97 +1 +1 1024.2 1021.1 +5.1 +6.6
19 20.03 Ю 6
{8}
н/о н/о +5.7 +5.3 97 +1 +1 1023.8 1020.7
20 20.03 Ю 6
{9}
н/о н/о +5.5 +5.3 99 0 0 1023.5 1020.4
21 20.03 Ю 6
{8}
н/о н/о +5.7 +5.6 99 +1 +1 1023.2 1020.1
22 20.03 Ю 8
{10}
н/о н/о +6.1 +6.1 100 0 0 1022.4 1019.2
23 20.03 Ю 11
{14}
н/о н/о +6.0 +1 +1 1021.9 1018.7
00 21.03 Ю 10
{14}
н/о н/о +6.0 +6.0 100 -0 -0 1021.2 1018.1
01 21.03 Ю 8
{13}
н/о н/о +6.3 +6.3 100 +1 +1 1020.7 1017.6
02 21.03 Ю 6
{13}
н/о н/о +6.9 +6.7 99 +2 +2 1020.3 1017.1
03 21.03 Ю 5
{9}
н/о н/о +6.4 +6.2 99 +2 +2 1020.4 1017.3
04 21.03 ЮЗ 5
{9}
н/о н/о +6.5 +6.2 98 +2 +2 1020.3 1017.2
05 21.03 Ю 4
{6}
н/о н/о +6.1 +5.8 98 +2 +2 1020.3 1017.2
06 21.03 Ю 3
{13}
н/о н/о +6.0 +5.8 99 +3 +3 1020.6 1017.4 +5.1 +7.1
07 21.03 ЮЗ 5
{6}
н/о н/о +5.8 +5.5 98 +1 +1 1021.1 1017.9
08 21.03 З 8
{9}
н/о н/о +6.3 +5.9 97 +1 +1 1021.4 1018.3
09 21.03 З 6
{9}
н/о н/о +6.2 +5.8 97 +1 +1 1021.9 1018.8
10 21.03 З 7
{8}
н/о н/о +5.9 +5.7 99 0 0 1022.5 1019.4
11 21.03 З 8
{9}
н/о н/о +6.0 +6.0 100 0 0 1023.4 1020.3
12 21.03 СЗ 6
{9}
н/о н/о +6.0 +6.0 100 +1 +1 1024.1 1020.9
13 21.03 СЗ 8
{10}
н/о н/о +5.8 +2 +2 1025.3 1022.1
14 21.03 СЗ 7
{8}
н/о н/о +6.0 +5.7 98 +1 +1 1025.9 1022.8
15 21.03 СЗ 8
{10}
н/о н/о +6.2 +5.8 97 +1 +1 1027.0 1023.8
18 21.03 С 6
{10}
н/о н/о +5.3 +4.3 93 0 0 1029.1 1025.9 +5.1 +6.5
19 21.03 С 4
{8}
н/о н/о +4.7 +3.8 94 0 0 1029.2 1026.0
20 21.03 СЗ 5
{6}
н/о н/о +5.1 +4.4 95 0 0 1029.8 1026.6
21 21.03 С 3
{6}
н/о н/о +4.0 +3.3 95 0 0 1029.9 1026.7
22 21.03 СВ 2
{4}
н/о н/о +3.1 +2.7 97 -0 -0 1030.2 1027.0
23 21.03 В 1
{3}
н/о н/о +1.3 +0.9 97 -1 -1 1031.3 1028.1
01 22.03 ЮВ 4
{5}
н/о н/о +2.1 +1.4 95 -3 -3 1029.6 1026.4
02 22.03 ЮВ 4
{6}
н/о н/о +2.7 +1.4 91 -2 -2 1029.0 1025.8
03 22.03 ЮВ 4
{7}
н/о н/о +3.4 +1.6 88 -1 -1 1028.8 1025.6
04 22.03 ЮВ 6
{8}
н/о н/о +3.9 +1.1 82 -2 -2 1028.2 1025.0
05 22.03 ЮВ 8
{12}
н/о н/о +5.0 -0.5 68 -1 -1 1027.5 1024.3
06 22.03 ЮВ 10
{13}
н/о н/о +4.9 -1.4 64 -1 -1 1026.8 1023.6 +0.9 +5.4
07 22.03 ЮВ 10
{15}
н/о н/о +5.4 -0.6 65 -1 -1 1026.3 1023.2
08 22.03 ЮВ 14
{19}
н/о н/о +6.3 -0.2 63 -0 -0 1025.2 1022.1
09 22.03 ЮВ 15
{20}
н/о н/о +6.2 -0.3 63 -1 -1 1025.0 1021.9
10 22.03 ЮВ 15
{21}
н/о н/о +5.5 +2.8 83 -2 -2 1024.6 1021.5
11 22.03 ЮВ 14
{20}
н/о н/о +5.3 +4.5 95 -2 -2 1023.5 1020.3
12 22.03 ЮВ 16
{21}
н/о н/о +5.8 +5.2 96 -2 -2 1022.0 1018.9
13 22.03 ЮВ 16
{21}
н/о н/о +5.7 +5.2 97 -2 -2 1021.1 1018.0
14 22.03 ЮВ 16
{22}
н/о н/о +5.4 +5.1 98 -2 -2 1020.1 1017.0
15 22.03 ЮВ 15
{21}
н/о н/о +5.4 +5.2 99 -2 -2 1019.8 1016.6
16 22.03 ЮВ 14
{21}
н/о н/о +5.6 +5.4 99 -2 -2 1018.8 1015.6
17 22.03 Ю 14
{18}
н/о н/о +5.5 +5.5 100 -2 -2 1018.1 1014.9
18 22.03 Ю 12
{22}
н/о н/о +5.4 +5.4 100 -2 -2 1017.8 1014.6 +4.8 +6.4 2
19 22.03 Ю 12
{15}
н/о н/о +5.4 0 0 1017.2 1014.0
20 22.03 Ю 10
{15}
н/о н/о +5.7 +5.7 100 -1 -1 1016.5 1013.4
21 22.03 Ю 8
{13}
н/о н/о +5.7 +5.7 100 -0 -0 1016.2 1013.1 2
22 22.03 Ю 9
{13}
н/о н/о +5.8 +5.8 100 -0 -0 1016.1 1013.0
23 22.03 ЮЗ 9
{12}
н/о н/о +5.9 +5.8 99 -0 -0 1016.5 1013.4
00 23.03 З 7
{15}
н/о н/о +5.8 +5.6 99 0 0 1017.1 1013.9
01 23.03 ЮЗ 6
{8}
н/о н/о +5.7 +5.3 97 +1 +1 1017.6 1014.5
02 23.03 З 6
{8}
н/о н/о +5.3 +4.1 92 0 0 1018.2 1015.0
03 23.03 З 9
{12}
н/о н/о +5.6 +2.5 80 -0 -0 1018.5 1015.3
04 23.03 З 8
{11}
н/о н/о +5.3 +2.6 83 -0 -0 1018.8 1015.7
05 23.03 З 9
{11}
н/о н/о +5.3 +2.1 80 -1 -1 1019.1 1016.0
06 23.03 З 8
{14}
н/о н/о +5.0 +1.6 79 -1 -1 1019.7 1016.6 +4.9 +6.1 3
07 23.03 З 10
{14}
н/о н/о +5.0 +1.3 77 -1 -1 1020.4 1017.2
08 23.03 З 7
{11}
н/о н/о +5.3 +1.7 78 0 0 1020.8 1017.7
09 23.03 З 8
{12}
н/о н/о +5.6 +2.3 79 0 0 1021.3 1018.2
10 23.03 З 9
{12}
н/о н/о +6.1 +2.1 76 +1 +1 1021.7 1018.5
11 23.03 З 10
{18}
н/о н/о +5.6 +2.6 81 -1 -1 1022.0 1018.9
12 23.03 З 11
{18}
н/о н/о +6.0 +2.5 78 -0 -0 1022.6 1019.5
13 23.03 З 12
{16}
н/о н/о +6.1 +2.4 77 -0 -0 1023.1 1020.0
14 23.03 З 12
{15}
н/о н/о +6.2 +2.3 76 -0 -0 1023.3 1020.2
15 23.03 З 12
{18}
н/о н/о +5.3 +2.0 79 -1 -1 1023.6 1020.4
16 23.03 З 11
{15}
н/о н/о +5.5 +2.7 82 -1 -1 1024.0 1020.9
17 23.03 З 11
{15}
н/о н/о +5.7 +3.0 83 -1 -1 1024.4 1021.3
18 23.03 З 12
{18}
н/о н/о +5.3 +2.7 83 -2 -2 1024.7 1021.5 +4.0 +6.4
19 23.03 З 10
{16}
н/о н/о +5.1 +2.7 84 -1 -1 1025.5 1022.3
20 23.03 З 9
{12}
н/о н/о +5.1 +2.9 86 -1 -1 1026.3 1023.1
21 23.03 З 7
{11}
н/о н/о +5.2 +3.4 88 -0 -0 1026.5 1023.4
22 23.03 СЗ 5
{10}
н/о н/о +3.9 +2.5 91 -1 -1 1026.7 1023.5
23 23.03 ЮЗ 2
{6}
н/о н/о +3.9 +2.8 93 +1 +1 1026.5 1023.3
00 24.03 З 6
{16}
н/о н/о +4.9 +3.2 89 -0 -0 1025.9 1022.7
01 24.03 ЮЗ 5
{8}
н/о н/о +4.6 +3.3 91 -0 -0 1025.2 1022.1
02 24.03 ЮЗ 7
{8}
н/о н/о +4.8 +3.7 93 -1 -1 1024.6 1021.5
03 24.03 ЮЗ 6
{8}
н/о н/о +4.8 +3.6 92 -1 -1 1023.7 1020.5
04 24.03 ЮЗ 7
{9}
н/о н/о +5.1 +4.0 93 -1 -1 1022.6 1019.4
05 24.03 ЮЗ 7
{10}
н/о н/о +5.0 +4.3 95 -1 -1 1021.8 1018.7
06 24.03 ЮЗ 7
{10}
н/о н/о +5.1 +4.4 95 -1 -1 1021.0 1017.8 +3.6 +5.5 1
07 24.03 ЮЗ 8
{11}
н/о н/о +5.3 +4.1 92 -1 -1 1020.6 1017.5
08 24.03 ЮЗ 8
{10}
н/о н/о +5.5 +4.2 91 -0 -0 1019.9 1016.7
09 24.03 ЮЗ 7
{10}
н/о н/о +5.2 +3.8 91 -0 -0 1019.1 1015.9
10 24.03 ЮЗ 8
{10}
н/о н/о +5.5 +3.6 88 -0 -0 1018.2 1015.1
11 24.03 ЮЗ 9
{11}
н/о н/о +5.8 +3.7 86 -0 -0 1017.4 1014.2
12 24.03 ЮЗ 9
{12}
н/о н/о +5.8 +3.7 86 -0 -0 1016.1 1013.0
13 24.03 ЮЗ 10
{11}
н/о н/о +5.5 +3.6 88 -1 -1 1014.9 1011.8
14 24.03 ЮЗ 10
{12}
н/о н/о +5.6 +3.7 88 -1 -1 1013.5 1010.3
15 24.03 ЮЗ 10
{14}
н/о н/о +5.4 +4.0 91 -1 -1 1012.2 1009.0
16 24.03 ЮЗ 10
{14}
н/о н/о +4.8 +3.5 91 -2 -2 1010.8 1007.6
17 24.03 З 9
{18}
н/о н/о +4.6 +2.7 87 -2 -2 1010.2 1007.0 1
18 24.03 З 7
{18}
н/о н/о +4.4 +2.4 87 -1 -1 1009.8 1006.6 +3.9 +6.3 1
19 24.03 З 10
{13}
н/о н/о +3.8 +2.2 89 -3 -3 1009.3 1006.2
20 24.03 СЗ 8
{13}
н/о н/о +3.9 +2.5 91 -2 -2 1009.3 1006.2
21 24.03 СЗ 7
{10}
н/о н/о +3.9 +2.1 88 -2 -2 1009.1 1006.0
22 24.03 СЗ 8
{9}
н/о н/о +3.9 +1.4 84 -2 -2 1008.8 1005.7
23 24.03 С 5
{13}
н/о н/о +2.7 +1.0 89 -3 -3 1009.0 1005.9
00 25.03 СЗ 10
{13}
н/о н/о +4.2 +2.2 87 -3 -3 1009.2 1006.1
01 25.03 СЗ 11
{14}
н/о н/о +4.2 +1.9 85 -3 -3 1009.6 1006.4
02 25.03 СЗ 12
{15}
н/о н/о +4.0 +2.1 87 -3 -3 1009.9 1006.7
03 25.03 С 10
{13}
н/о н/о +4.1 +2.4 89 -3 -3 1010.6 1007.4
04 25.03 С 8
{11}
н/о н/о +3.8 +2.3 90 -3 -3 1011.6 1008.4
05 25.03 С 7
{12}
н/о н/о +3.8 +2.3 90 -2 -2 1012.9 1009.7
06 25.03 С 7
{15}
н/о н/о +2.9 +1.6 91 -3 -3 1014.5 1011.4 +2.2 +4.7 0.5
07 25.03 С 6
{10}
н/о н/о +3.3 +1.7 89 -2 -2 1016.3 1013.2
08 25.03 С 9
{11}
н/о н/о +3.5 +1.6 87 -3 -3 1017.7 1014.5
09 25.03
{11}
н/о н/о +4.4 +1.8 83 1019.4 1016.2
10 25.03 С 8
{11}
н/о н/о +5.0 +2.3 83 -1 -1 1020.5 1017.3
11 25.03 С 9
{13}
н/о н/о +5.9 +2.7 80 0 0 1021.5 1018.4
12 25.03 СЗ 12
{14}
н/о н/о +5.3 +2.8 84 -2 -2 1022.1 1019.0
13 25.03 С 13
{15}
н/о н/о +5.3 +1.9 79 -2 -2 1022.5 1019.3
14 25.03 С 14
{18}
н/о н/о +5.3 +0.8 73 -2 -2 1023.4 1020.2
15 25.03 С 13
{18}
н/о н/о +5.1 +1.0 75 -2 -2 1023.3 1020.1
16 25.03 С 13
{16}
н/о н/о +5.1 +0.6 73 -2 -2 1023.6 1020.4
17 25.03 С 11
{16}
н/о н/о +5.0 +1.2 76 -2 -2 1024.0 1020.9
18 25.03 С 10
{18}
н/о н/о +4.6 +1.0 77 -2 -2 1024.1 1020.9 +2.9 +6.1
19 25.03 СЗ 8
{12}
н/о н/о +4.7 +2.3 84 -1 -1 1024.1 1020.9
20 25.03 СЗ 9
{11}
н/о н/о +4.9 +3.5 91 -1 -1 1023.8 1020.7
21 25.03 СЗ 10
{13}
н/о н/о +4.9 +3.0 87 -2 -2 1023.7 1020.6
22 25.03 СЗ 12
{16}
н/о н/о +4.7 +2.8 87 -2 -2 1023.5 1020.4
23 25.03 С 11
{15}
н/о н/о +4.6 +2.1 84 -2 -2 1023.4 1020.3

 

Местоположение метеостанции Маяк Obrestad (Норвегия): широта 58.65 долгота 5.56 высота над уровнем моря 24 м.

В архиве по умолчанию представлена погода на Маяке Obrestad за последнюю неделю. Архивные данные за месяц целиком и за предыдущие месяцы, начиная с января 2011 года, Вы можете получить, выбрав интересующий диапазон дат из раскрывающегося списка и нажав кнопку "Ввод!".


*Определитесь, кто Вы:
робот инопланетянин человек

Внимание! Время в таблицах - всемирное. Для получения местного времени необходимо прибавить поправку, которая равна 1 ч.

Смотрите также архив погоды в соседних городах и на ближайших метеорологических станциях:

Погода в Сархейме (Норвегия) (13 км)
Погода в Ставангер аэропорту (Норвегия) (26 км)
Погода в Айгеройе (Норвегия) (29 км)
Погода в Ставангере (Норвегия) (36 км)
Погода в Квитсёй (Норвегия) (47 км)
Погода на Лярватне (Норвегия) (55 км)
Погода в Эйк-Хоуве (Норвегия) (57 км)
Погода в Фистере (Норвегия) (64 км)
Погода в Аэропорту Haugesund (Норвегия) (81 км)
Погода на Маяке Utsira (Норвегия) (83 км)

Пояснения к столбцам:

Ветер - указаны скорость ветра в м/с - средняя за 10 мин, порывы в срок и между сроками (в фигурных скобках) и направление, откуда дует ветер: С - северный, СВ - северо-восточный, В - восточный, ЮВ - юго-восточный, Ю - южный, ЮЗ - юго-западный, З - западный, СЗ - северо-западный.
Видимость - горизонтальная дальность видимости в метрах или километрах. При видимости от 1 до 10 км при отсутствии осадков обычно наблюдается дымка, при ухудшении видимости до 1 км и менее - туман. В сухую погоду видимость может ухудшаться дымом, пылью или мглою.
Явления - указаны атмосферные явления, наблюдавшиеся в срок или в последний час перед сроком; фигурными скобками обозначены явления, наблюдавшиеся между сроками (за 1-3 часа до срока); квадратными скобками обозначены град или гололедные отложения с указанием их диаметра в мм.
Облачность - указаны через наклонную черту общая и нижняя облачность в баллах и высота нижней границы облаков в метрах; квадратными скобками обозначены формы облаков: Ci - перистые, Cs - перисто-слоистые, Cc - перисто-кучевые, Ac - высококучевые, As - высокослоистые, Sc - слоисто-кучевые, Ns - слоисто-дождевые, Cu - кучевые, Cb - кучево-дождевые. Подробнее классификацию облаков см. в Атласе облаков (PDF).
T - Температура воздуха - температура, измеренная на высоте 2 м над землей.
Td - Температура точки росы - температура, при понижении до которой содержащийся в воздухе водяной пар достигнет насыщения.
f - Относительная влажность воздуха - влажноcть воздуха, измеренная на высоте 2 м над землей.
Te - Эффективная температура - температура, которую ощущает одетый по сезону человек в тени. Характеристика душности погоды. При расчете учитывается влияние влажности воздуха и скорости ветра на теплоощущения человека.
Tes - Эффективная температура на солнце - температура, которую ощущает человек, с поправкой на солнечный нагрев. Характеристика знойности погоды. Зависит от высоты солнца над горизонтом, облачности и скорости ветра. Ночью, в пасмурную погоду, а также при ветре 12 м/с и более поправка равна нулю.
P - Атмосферное давление - приведенное к уровню моря атмосферное давление.
Po - Атмосферное давление - измеренное на уровне метеостанции атмосферное давление.
Tmin - Минимальная температура - минимум температуры воздуха на высоте 2 м над землей.
Tmax - Максимальная температура - максимум температуры воздуха на высоте 2 м над землей.
R - Количество осадков - Количество выпавших осадков за период времени, мм. При наведении курсора мыши на число - период времени, за который выпало указанное количество осадков.
R24 - Количество осадков - Количество выпавших осадков за 24 часа, мм.
S - Снежный покров - Высота снежного покрова, см. При наведении курсора мыши на число - состояние снежного покрова и степень покрытия местности в баллах.